Theta_e
318 317 317 316 316 315 315 315 314 314 314 314 314 314 313 313 313 313 313 312 312 312 312 311 311 311 310 310 310 311 311 312 312 311 311 310 310 310 310 310 310 310 311 311 311 311 311 311 311 311 311 312 312 312 312 312 312 312 312 312 311 311 310 309 310 312 316 315 315 315 315 315 315 315 315 314 314 314 313 312 312 311 310 310 309 308
316 316 315 315 315 314 314 314 314 314 314 313 313 313 313 313 313 313 312 312 311 311 311 311 311 310 310 310 310 311 311 311 311 310 310 310 310 310 310 310 310 311 311 311 311 311 311 311 311 311 312 312 312 312 312 312 311 311 311 311 310 310 310 309 309 310 313 314 314 314 314 313 313 313 313 313 313 313 312 311 311 310 310 309 308 307
315 314 314 314 313 313 313 313 313 313 313 313 313 313 313 312 312 312 311 311 311 310 310 310 310 310 310 310 310 310 310 310 309 309 309 309 309 309 310 310 311 311 311 311 311 311 311 311 311 311 311 311 311 311 311 311 310 310 310 310 310 309 309 309 309 309 310 312 313 313 313 312 312 311 311 311 311 311 310 310 309 309 308 308 307 307
313 313 312 312 312 312 312 312 312 312 312 312 312 312 312 311 311 311 310 310 310 310 310 310 310 310 310 310 310 309 309 309 309 308 308 309 309 310 310 310 311 311 311 311 311 311 311 311 311 311 311 311 310 310 310 309 309 309 309 309 309 309 309 309 309 309 308 309 310 311 312 311 311 310 310 309 309 309 308 308 308 307 307 306 306 306
311 311 311 311 311 311 311 311 311 311 311 311 311 310 310 310 310 310 310 310 310 310 310 310 310 310 310 310 310 309 309 309 308 308 309 310 310 310 310 310 311 311 312 311 311 311 310 310 310 310 310 310 309 309 309 309 309 308 308 308 309 309 309 309 309 309 308 308 308 309 309 310 310 309 309 309 308 308 307 307 306 306 306 305 305 305
310 310 310 310 310 310 310 310 310 310 310 310 310 309 309 309 310 310 310 310 310 310 309 309 310 310 310 310 310 309 309 308 308 308 309 311 311 311 311 311 311 311 311 311 310 310 310 310 310 310 309 309 309 309 309 308 308 308 308 308 308 308 308 308 308 309 309 308 308 308 308 308 308 308 309 308 308 307 307 306 305 305 305 305 304 304
309 309 310 310 310 309 309 309 309 309 309 309 309 309 309 309 309 309 309 309 309 309 309 309 309 309 309 309 309 309 308 308 308 308 309 310 311 311 311 311 311 311 311 310 310 310 310 310 309 309 309 309 308 308 308 308 308 308 308 308 308 307 307 307 308 308 308 308 308 308 308 308 308 308 308 308 307 307 306 305 305 304 304 304 303 303
309 309 309 309 309 309 309 309 309 309 309 309 309 309 309 309 309 309 308 308 308 308 309 309 309 309 308 308 308 308 308 308 308 309 309 310 311 311 311 311 311 311 310 310 309 309 309 309 309 309 308 308 308 307 307 308 308 308 308 308 308 308 308 307 307 308 308 308 308 308 308 308 308 308 308 308 307 306 305 305 304 304 303 303 302 302
309 309 309 309 309 309 309 308 308 308 308 308 308 309 309 309 309 308 308 308 308 308 308 308 308 308 308 308 308 307 307 308 309 309 310 310 311 311 311 311 311 310 309 309 309 309 309 309 309 308 308 308 307 307 307 307 307 307 308 308 308 308 308 308 307 307 307 308 308 308 308 308 308 308 308 307 307 306 305 304 303 303 303 302 302 301
309 309 309 309 308 308 308 308 308 308 308 308 308 308 308 308 308 308 308 308 308 308 307 307 308 307 307 307 307 307 307 308 309 310 311 311 311 311 311 311 310 310 309 309 309 309 309 309 308 308 307 307 307 307 307 307 307 307 307 307 308 308 308 308 307 307 307 307 308 308 308 308 308 308 307 307 307 306 305 304 303 303 302 302 301 301
309 309 308 308 307 307 307 307 307 307 307 307 307 306 307 306 307 308 308 308 308 308 307 307 307 306 306 306 306 307 308 308 310 311 311 311 311 311 311 310 310 309 309 308 309 309 309 308 308 307 307 307 307 307 307 307 306 306 306 307 307 307 307 307 307 307 307 307 308 308 308 308 308 307 307 306 306 305 304 304 303 302 302 302 301 301
308 308 307 307 307 306 306 306 306 306 306 306 306 306 306 306 306 307 308 308 308 308 308 307 306 306 305 305 306 307 307 308 309 309 310 310 310 310 310 309 309 309 308 308 308 308 308 308 307 307 307 307 307 307 307 306 306 306 306 306 306 307 307 307 307 307 307 307 307 308 308 307 307 307 306 306 305 305 304 303 302 302 302 301 301 301
307 307 306 306 305 305 305 306 306 306 306 306 307 307 307 307 307 307 307 307 307 307 307 307 307 307 306 306 306 306 307 307 308 308 309 309 309 309 309 308 308 308 308 308 308 308 308 308 307 307 307 307 307 307 306 306 306 306 306 306 306 306 306 306 307 307 307 307 307 307 307 307 306 306 306 305 304 304 303 302 302 302 301 301 301 301
306 305 304 304 304 305 305 306 306 306 307 307 307 307 307 307 306 306 306 306 306 306 307 307 308 308 307 307 307 306 307 307 307 308 308 308 308 308 307 307 307 307 307 307 308 308 308 307 307 307 307 307 307 307 306 306 306 305 305 305 305 306 306 306 306 306 306 307 307 307 307 307 306 305 305 304 303 303 302 302 301 301 301 301 300 300
305 304 305 305 305 305 305 305 306 306 306 306 305 305 305 306 305 306 306 306 307 307 308 308 309 309 308 308 308 307 307 307 307 307 307 307 307 307 307 307 306 307 307 307 307 307 307 307 307 307 307 306 306 306 306 306 305 305 305 305 305 305 305 305 306 306 306 306 307 306 306 306 305 305 304 303 302 302 301 301 301 300 300 300 299 299
305 305 305 305 305 304 304 304 304 305 305 305 305 305 305 305 305 306 306 306 307 308 308 309 309 309 309 308 308 308 308 308 308 307 307 307 307 307 307 307 307 307 307 307 307 307 307 307 306 306 306 306 306 306 305 305 305 305 304 304 304 305 305 305 305 305 305 306 306 305 305 305 304 303 303 303 302 302 301 301 301 300 300 299 298 297
305 305 304 304 304 304 304 304 304 304 304 305 305 305 305 305 305 305 306 307 308 308 308 309 309 309 309 308 308 308 308 308 308 307 307 306 307 307 307 307 307 307 307 307 307 306 306 306 306 306 306 306 305 305 305 305 305 304 304 304 304 304 304 304 304 304 305 305 305 304 304 303 303 303 302 302 302 302 302 302 301 301 300 299 297 296
304 304 304 304 304 304 304 304 304 305 305 306 306 306 306 306 306 307 307 308 308 309 309 309 309 309 309 308 308 307 308 308 308 307 307 306 306 306 307 307 307 306 306 306 306 306 306 305 305 305 305 305 305 305 304 304 304 304 304 304 304 304 304 304 304 304 304 304 304 303 303 303 303 302 302 302 302 302 302 302 302 301 300 298 297 295
304 304 304 304 304 304 304 305 305 306 306 306 306 306 306 306 307 307 307 307 308 308 308 308 308 309 309 308 308 307 307 308 308 307 307 306 306 306 306 306 306 306 306 305 305 305 305 305 305 304 304 304 304 304 304 304 304 304 304 304 304 304 304 304 304 304 304 303 303 303 303 303 303 302 303 303 303 303 303 302 302 301 299 298 296 294
304 304 304 303 304 304 304 305 305 305 305 306 306 306 306 307 307 307 307 307 307 307 308 308 308 308 308 307 307 307 307 307 307 307 307 306 306 306 306 306 305 305 305 305 305 305 304 304 304 304 304 304 304 304 304 304 303 303 303 304 304 304 304 304 303 303 303 303 303 303 303 303 303 303 302 302 303 303 302 302 301 300 298 296 294 293
304 304 303 303 304 304 305 305 305 305 305 306 306 307 307 307 307 307 308 307 307 307 308 307 307 306 307 307 307 306 306 307 307 307 307 307 306 306 305 305 305 305 305 305 304 304 304 304 304 303 303 303 303 303 303 303 303 303 303 303 303 304 304 303 303 303 303 303 303 303 303 303 303 302 302 302 302 302 302 301 300 298 296 294 293 291
304 304 304 304 304 304 305 305 304 304 305 306 306 306 307 307 307 307 308 308 307 307 307 307 306 306 306 306 306 306 306 307 307 307 307 307 306 306 305 305 305 305 305 304 304 304 304 303 303 303 303 303 303 303 302 302 302 302 302 302 303 303 303 303 303 303 303 303 303 303 303 302 302 302 302 302 302 301 301 300 298 297 295 293 291 290
304 304 304 304 304 304 304 304 304 305 305 306 306 306 307 307 307 307 307 307 307 307 307 306 306 306 306 306 306 306 306 306 306 307 306 306 306 305 305 305 305 305 305 304 304 304 303 303 303 303 303 302 302 302 302 302 302 302 302 302 302 302 303 303 303 303 303 303 302 302 302 302 302 302 302 301 301 300 299 298 296 295 293 292 291 290
305 305 305 305 305 305 305 305 305 306 306 306 306 306 306 306 307 307 306 306 306 306 306 306 306 306 306 306 306 306 306 306 306 306 306 306 306 305 305 305 305 305 305 304 304 304 303 303 303 303 303 302 302 302 302 302 302 302 301 301 301 302 302 302 303 303 302 302 302 302 302 302 302 301 301 301 300 299 297 296 294 293 292 291 290 289
305 305 305 305 305 305 305 305 305 305 305 306 306 306 306 306 306 306 306 306 306 306 306 306 306 306 306 306 306 306 306 306 306 306 306 306 305 305 305 305 304 304 304 304 304 304 303 303 303 303 303 302 302 302 302 302 302 302 302 302 301 301 301 302 302 302 302 302 302 302 301 301 301 301 301 300 299 297 296 294 293 292 291 290 290 289
305 305 305 305 305 305 305 305 305 305 305 305 305 305 306 306 306 306 306 306 306 306 305 305 305 305 305 305 305 305 305 305 305 305 305 305 305 305 305 304 304 304 304 304 304 304 303 303 303 303 303 302 302 302 302 302 302 302 302 302 302 301 301 301 301 301 301 301 301 301 301 301 301 300 300 299 297 296 294 293 292 291 290 290 289 289
305 305 305 305 305 305 305 305 305 305 305 305 305 305 305 305 305 305 305 304 304 304 304 304 305 305 304 304 304 304 304 304 304 305 305 305 305 305 304 304 304 304 304 304 303 303 303 303 303 303 303 302 302 302 302 302 302 302 302 302 302 302 301 301 301 301 301 301 301 301 301 300 300 300 299 298 296 295 293 292 291 290 290 289 289 289
304 304 304 304 304 304 304 304 304 304 304 304 304 304 304 304 304 304 303 303 303 303 303 303 303 304 304 303 303 303 303 303 303 303 304 304 304 304 304 304 303 303 303 303 303 303 303 303 303 303 303 303 302 302 302 302 302 302 302 302 302 302 301 301 301 301 300 300 300 300 300 300 299 299 298 296 295 294 292 291 290 290 289 289 289 289
304 304 304 304 304 304 304 304 304 304 304 303 303 303 303 303 303 303 303 303 302 302 302 303 303 303 303 303 303 302 302 301 302 302 302 303 303 303 303 302 302 302 302 302 302 302 302 302 302 302 302 302 302 302 302 302 302 302 302 301 301 301 301 301 300 300 300 300 300 300 300 299 298 297 296 295 294 293 291 291 290 289 289 289 289 289
304 304 304 303 303 303 303 303 303 303 303 303 302 302 302 302 302 302 302 302 302 302 302 302 303 303 303 303 302 302 301 301 301 301 301 301 301 301 301 300 300 300 300 300 300 300 300 301 301 301 301 301 301 301 301 301 301 301 301 301 300 300 300 300 300 300 300 300 299 299 298 298 297 296 294 293 292 292 291 290 289 289 289 289 289 289
303 303 303 303 303 303 303 302 302 302 302 302 302 302 301 301 302 302 302 302 302 302 302 302 303 303 303 302 301 301 299 300 300 300 299 299 299 299 299 298 297 297 297 297 297 298 298 298 299 299 299 298 298 298 299 299 299 299 299 299 299 299 299 299 299 299 298 298 298 297 296 295 294 293 293 292 291 291 290 290 289 289 289 289 289 288
303 303 303 303 303 302 302 302 302 302 301 301 301 301 301 301 301 301 301 301 301 301 301 301 301 302 301 301 300 299 298 298 298 298 298 298 298 297 297 296 296 295 296 295 295 295 295 296 296 297 296 296 296 296 296 296 296 296 297 297 297 297 297 297 297 297 297 296 296 295 294 293 292 292 291 291 290 290 290 289 289 288 288 288 288 288
302 302 302 302 302 302 302 302 301 301 301 301 301 301 300 300 300 300 300 300 300 300 300 299 300 299 299 299 298 298 297 296 296 297 296 296 296 296 296 295 295 294 294 294 294 294 294 294 294 294 294 294 294 293 293 294 294 294 294 295 295 295 295 295 295 295 294 294 293 293 292 291 291 290 290 290 290 289 289 289 289 288 288 288 288 288
302 302 302 302 302 301 301 301 301 301 301 300 300 300 300 299 299 299 299 298 298 298 298 297 297 297 297 297 297 296 295 295 295 295 295 295 295 294 294 294 293 293 293 292 292 292 292 293 293 292 292 292 292 292 292 292 292 292 292 293 293 293 293 293 293 293 293 292 292 291 291 290 290 290 289 289 289 289 289 289 288 288 288 288 288 288
302 302 301 301 301 301 301 301 300 300 300 300 300 299 299 298 298 298 297 297 297 296 296 296 295 295 295 295 294 294 293 293 293 294 293 293 292 292 292 292 291 291 291 291 291 291 291 291 291 291 291 291 291 291 291 291 291 291 291 291 291 291 291 291 291 291 291 291 290 290 290 290 289 289 289 289 289 289 288 288 288 288 288 288 288 288
301 301 301 301 301 301 300 300 300 299 299 299 299 299 298 298 297 297 296 296 295 295 294 294 294 293 293 293 292 292 291 291 291 291 291 290 290 290 290 290 289 289 289 289 289 289 289 290 290 290 289 289 289 289 290 290 289 289 289 289 290 290 290 290 290 290 290 290 290 289 289 289 289 289 289 289 288 288 288 288 288 288 288 288 288 288
301 301 300 300 300 300 300 299 299 299 299 299 299 298 298 298 297 297 296 295 295 294 293 293 292 292 291 291 290 290 290 290 289 289 289 288 288 288 288 288 288 288 288 288 288 288 288 288 289 289 288 288 288 288 288 288 288 288 288 288 288 289 289 289 289 289 289 289 289 289 289 289 289 289 289 289 288 288 288 288 288 288 287 287 287 288
300 300 300 300 300 300 300 299 299 298 298 298 298 298 298 298 297 296 296 295 294 293 292 292 291 290 290 289 289 289 288 288 288 288 288 288 287 287 288 287 287 287 287 287 287 288 287 288 288 288 288 288 288 288 288 288 288 288 288 288 288 288 288 288 288 288 289 289 289 289 289 289 289 289 289 288 288 288 288 288 288 287 287 287 287 288
300 299 300 300 300 300 299 299 299 299 298 298 298 298 298 297 297 296 295 294 293 292 291 291 290 289 289 288 288 287 287 287 287 287 287 287 287 287 287 287 287 287 287 287 287 287 287 287 287 287 287 287 287 287 287 287 287 287 287 287 288 287 287 288 288 288 288 288 288 288 288 288 288 288 288 288 288 288 288 288 287 287 287 287 287 287
299 299 299 299 299 299 299 299 299 298 298 298 298 297 297 297 296 296 295 294 293 292 291 290 289 288 287 287 287 287 287 287 287 287 287 287 287 287 287 287 287 286 286 286 286 286 286 286 287 287 287 287 287 287 287 287 287 287 287 287 287 287 287 287 287 288 288 288 288 288 288 288 288 288 288 288 288 288 287 287 287 287 286 286 286 287
299 299 299 299 299 299 299 299 298 298 298 297 297 297 297 296 296 295 294 293 292 291 291 289 288 288 287 287 287 286 286 287 287 287 287 287 287 287 287 287 286 286 286 286 286 286 286 286 286 286 286 286 287 287 287 287 287 287 287 287 287 287 287 287 287 287 287 288 288 288 288 288 288 288 288 288 288 287 287 287 287 287 286 286 286 286
298 298 299 298 298 298 298 298 298 297 297 297 297 296 296 296 295 294 294 293 292 291 290 289 288 287 287 286 286 286 286 286 287 287 287 287 287 287 287 287 287 286 286 286 286 286 286 286 286 286 286 286 286 287 287 287 286 286 286 286 287 287 287 287 287 287 287 287 287 287 288 288 288 288 288 288 288 287 287 287 287 287 286 286 286 286
298 298 298 298 298 298 298 297 297 297 297 296 296 296 295 295 294 293 293 292 291 290 289 289 288 287 287 286 286 286 286 287 287 287 287 287 287 287 287 287 287 287 286 286 286 286 286 286 286 286 286 286 286 287 287 287 286 286 286 286 286 286 286 286 286 286 286 287 287 287 287 287 288 288 288 288 288 288 287 287 287 287 287 287 287 287
298 298 298 298 298 298 297 297 297 296 296 296 296 295 295 294 293 292 291 290 290 289 289 289 288 287 287 286 286 286 287 287 287 287 287 287 287 287 287 287 287 287 286 286 286 286 286 286 286 286 286 286 286 287 287 287 286 286 286 286 286 286 286 286 286 286 286 286 286 287 287 287 287 288 288 288 288 288 288 287 287 287 287 287 287 287
298 298 298 298 297 297 297 296 296 296 295 295 295 294 294 292 291 290 290 290 289 289 289 288 288 288 287 287 287 287 287 287 287 287 287 287 287 287 287 287 287 287 287 287 287 286 286 286 286 286 286 286 286 286 286 286 286 286 286 286 286 286 286 286 286 286 286 286 286 286 286 287 287 287 288 288 288 288 288 288 287 287 287 287 287 287
297 297 297 297 297 297 296 295 295 295 295 295 294 294 293 291 290 289 289 289 289 289 289 289 288 288 288 288 287 287 287 287 287 288 288 288 287 287 287 287 287 287 287 287 287 287 287 287 286 286 286 286 286 286 286 286 286 286 286 286 286 286 286 286 286 286 286 286 286 286 286 286 287 287 287 288 288 288 288 288 288 287 287 287 287 287
297 297 297 297 296 296 295 295 295 294 294 294 294 293 291 290 290 289 289 290 290 290 290 290 289 289 289 289 288 288 288 288 288 288 288 288 288 288 288 287 287 287 287 287 287 287 287 287 287 287 287 287 287 287 286 286 286 286 286 286 286 286 286 286 286 286 286 286 285 285 286 286 287 287 287 287 287 287 287 287 287 287 287 287 287 287
296 296 296 296 296 295 295 295 295 294 294 293 293 292 291 290 290 290 290 290 291 291 291 291 291 291 291 290 290 290 290 289 289 289 289 289 288 288 288 288 287 287 287 287 287 287 287 287 287 287 287 287 287 288 287 287 286 286 286 286 286 287 287 286 286 286 286 286 286 285 285 286 286 286 287 287 287 287 287 287 287 287 287 287 287 287
295 295 295 295 295 295 294 294 294 294 294 293 292 291 291 291 291 291 291 291 292 292 292 292 292 292 292 292 292 292 292 291 291 291 290 290 289 289 288 288 288 287 287 287 287 287 287 287 287 287 287 287 287 288 288 287 287 287 287 287 287 287 287 287 287 286 286 286 286 286 286 286 286 286 286 286 287 287 287 287 287 287 287 287 287 287
295 294 294 294 294 294 294 294 294 293 293 292 291 291 291 292 292 292 292 292 292 293 293 293 293 293 293 293 293 293 293 293 293 293 292 292 291 291 290 289 288 288 288 287 287 287 287 287 287 287 287 287 287 288 288 288 287 287 287 287 287 287 287 287 287 287 287 287 287 287 286 286 286 286 286 286 286 287 287 287 287 287 287 287 287 287
295 294 294 294 294 294 294 293 293 292 292 291 291 291 292 292 292 292 293 293 293 293 293 293 293 293 293 294 294 294 294 294 294 294 294 294 293 293 292 291 290 289 289 288 288 288 287 287 287 287 287 287 287 287 287 287 287 287 287 287 287 287 287 287 287 287 287 288 287 287 287 287 287 286 286 286 286 286 286 287 286 286 286 286 286 287
Wind_Speed
25 25 26 27 27 28 29 29 30 30 31 31 32 33 33 34 34 34 34 34 35 35 34 34 33 31 29 26 23 21 19 18 17 16 14 13 12 12 11 10 11 12 12 13 14 14 15 14 14 14 13 12 11 10 10 9 9 8 8 7 7 6 5 6 8 8 7 7 8 10 13 16 17 17 17 16 15 15 13 11 9 7 7 8 9 9
26 26 27 28 29 29 30 30 30 30 31 32 32 32 33 33 33 34 34 34 34 34 34 33 31 29 27 24 21 19 18 17 15 14 13 13 12 11 10 10 11 12 12 13 14 14 14 14 14 13 12 11 11 10 9 8 8 7 6 6 6 6 5 6 8 10 9 9 9 8 8 9 10 10 10 9 9 9 8 7 8 9 10 10 10 10
27 27 28 29 30 30 30 31 31 31 31 32 32 33 33 33 33 33 33 33 33 32 31 30 28 27 25 22 19 17 17 15 14 13 13 13 12 11 11 10 10 10 11 12 13 13 13 13 12 11 11 10 10 10 9 8 7 6 6 6 6 7 7 7 9 10 11 10 11 11 10 9 7 7 6 7 7 7 8 9 10 11 11 11 10 10
28 28 29 30 30 30 31 31 31 32 32 32 32 33 32 32 32 32 32 31 30 29 27 26 25 24 22 20 18 16 16 15 13 13 13 12 12 12 11 10 9 8 9 11 12 12 12 11 10 9 8 8 8 9 8 8 7 7 7 7 8 8 8 9 10 11 12 12 12 14 15 14 13 12 10 10 9 9 10 11 11 11 11 11 10 10
28 29 29 30 30 30 31 31 31 31 31 31 31 31 31 30 30 29 28 27 26 25 24 23 22 21 20 18 17 17 16 15 14 13 12 12 12 12 11 10 8 7 8 9 10 10 10 9 8 7 6 6 7 7 7 8 8 8 9 9 9 9 10 10 11 12 13 13 14 15 16 16 16 15 14 13 12 11 11 11 11 11 11 11 10 11
27 28 28 29 29 29 29 29 29 29 29 29 28 27 27 26 26 25 25 24 23 21 21 20 19 19 18 17 16 16 16 15 14 13 13 12 12 12 12 11 9 8 8 8 9 9 8 8 7 6 5 5 6 6 7 8 9 10 10 10 11 11 11 12 12 13 13 14 15 16 16 17 17 16 16 15 14 13 12 12 11 11 11 11 11 12
26 27 27 27 27 27 27 27 27 26 25 24 23 22 22 22 22 22 22 21 20 19 18 18 17 17 16 15 14 14 14 14 14 13 13 13 13 13 14 13 12 10 9 8 9 8 8 7 6 5 5 5 6 6 7 8 9 10 11 11 12 12 13 14 14 15 15 15 16 17 17 17 17 17 17 17 16 15 13 12 12 12 12 12 13 13
24 25 25 25 25 25 24 24 23 21 20 19 19 19 19 19 19 19 19 18 17 16 15 15 15 14 14 12 11 11 11 12 12 12 12 12 13 14 15 15 13 10 9 9 9 9 8 7 6 5 5 6 6 7 8 9 10 10 11 12 13 14 14 15 16 16 17 17 17 17 17 18 18 18 18 18 17 16 15 14 13 13 13 13 14 14
22 23 23 23 22 21 21 20 19 18 17 17 16 17 17 17 17 17 16 14 13 12 12 12 12 12 11 10 9 9 9 10 11 11 11 12 13 15 16 15 13 10 10 10 10 9 8 6 5 5 6 7 8 9 10 10 10 10 10 11 12 13 15 16 17 18 18 18 17 17 17 18 18 19 20 19 19 18 16 15 14 14 14 14 15 15
22 22 21 21 20 19 17 16 16 16 16 15 15 16 16 16 16 15 13 10 8 7 9 10 10 10 9 8 8 8 9 10 10 11 11 12 13 14 15 14 12 11 11 11 10 8 6 5 5 6 7 8 9 10 11 11 11 11 11 10 10 12 13 15 17 18 18 17 17 17 17 18 18 19 20 20 20 19 17 16 15 15 15 15 15 15
21 20 18 17 16 16 15 13 13 14 14 13 13 14 14 14 14 13 11 8 6 5 5 7 8 8 8 8 8 8 9 10 11 11 10 11 11 12 12 12 12 12 12 11 9 7 6 6 7 8 9 10 10 11 12 12 12 11 11 11 11 11 13 14 15 16 16 16 16 16 17 17 18 19 19 19 19 19 18 17 16 16 16 16 16 16
17 16 15 14 13 12 12 11 11 11 11 10 10 10 9 10 10 9 9 9 8 6 5 5 6 7 7 8 8 8 10 11 11 11 11 10 10 11 11 11 12 13 12 10 8 7 7 7 8 10 10 11 11 12 12 12 12 11 11 11 11 12 12 13 14 15 15 15 15 16 16 17 17 18 18 18 18 18 17 17 17 17 17 17 17 17
15 14 13 13 12 10 9 10 10 10 10 9 8 7 7 6 7 8 9 10 9 8 6 5 5 6 6 7 7 8 10 11 12 13 13 13 12 12 12 12 13 13 12 9 8 7 8 9 10 11 12 12 13 13 13 12 12 12 12 11 11 12 12 13 13 14 14 15 15 15 16 16 17 17 18 18 17 17 17 17 17 17 17 17 17 18
13 13 12 12 12 11 10 10 10 10 9 8 7 6 6 6 7 9 10 10 9 8 6 6 6 7 7 7 7 8 9 11 12 13 14 14 14 14 13 13 14 13 11 9 8 8 10 11 12 13 13 14 14 13 13 13 13 13 12 12 11 11 12 13 13 14 14 14 15 15 16 16 16 17 17 17 16 16 16 16 16 17 17 17 18 18
11 12 12 13 13 12 11 10 10 9 9 7 6 6 7 8 8 9 9 9 8 7 7 7 8 8 8 8 8 8 9 10 11 13 13 13 13 13 13 13 13 12 11 10 10 11 11 13 14 15 15 15 14 14 13 13 13 13 13 12 12 11 12 12 13 14 14 14 15 15 15 15 16 16 16 16 15 15 15 16 16 17 17 18 18 18
11 11 12 13 13 12 11 9 8 8 7 6 6 7 8 8 8 8 8 8 8 8 8 8 8 8 8 8 8 9 9 10 11 12 12 12 11 11 11 12 12 12 11 12 12 12 13 14 15 15 16 15 15 14 14 14 13 13 13 12 12 11 12 12 13 13 14 14 14 15 14 15 15 15 15 15 15 15 15 16 16 17 17 18 18 18
11 11 12 11 11 10 9 8 8 7 6 6 7 8 8 8 8 8 8 8 8 8 8 8 8 7 7 7 8 8 9 9 11 11 12 12 12 11 11 12 12 12 12 12 13 14 14 15 16 16 16 16 15 15 15 15 14 14 13 13 12 12 12 12 13 13 14 14 14 14 14 14 14 15 15 15 15 15 16 16 17 17 17 18 18 18
10 10 10 10 10 9 9 8 7 6 6 7 8 8 8 8 8 9 9 8 8 8 7 7 8 8 8 7 7 8 9 9 10 11 12 12 13 13 13 13 14 14 14 14 14 15 15 16 16 16 16 16 16 16 16 16 15 15 14 13 13 12 12 12 12 13 14 14 14 14 14 15 15 15 15 15 16 16 16 17 17 18 18 18 18 18
8 8 9 9 9 9 9 8 8 7 8 8 8 8 8 8 8 8 8 8 8 8 8 8 8 9 8 7 7 8 8 9 9 10 11 12 13 14 15 15 15 15 15 15 15 16 16 17 17 17 17 17 17 17 17 17 16 16 15 14 13 13 12 12 12 13 13 14 14 15 15 15 15 16 16 16 16 17 17 17 18 18 18 18 18 18
7 8 9 9 9 9 9 8 8 8 9 9 9 9 8 8 8 8 8 8 8 8 9 10 10 9 9 8 7 6 6 7 8 9 10 10 12 14 15 15 16 16 16 16 16 16 17 17 18 18 18 18 18 18 18 17 17 17 16 15 15 13 13 12 12 13 13 14 14 15 15 16 16 16 17 17 17 17 18 18 18 18 19 18 18 18
8 8 8 8 8 9 9 9 9 9 9 10 9 9 8 8 8 8 8 8 8 9 10 11 11 10 8 6 5 5 5 5 6 7 8 9 10 12 13 14 15 16 16 16 16 16 17 18 18 18 18 18 18 18 18 18 17 17 17 16 16 15 14 13 13 13 13 14 14 15 15 16 16 17 17 17 17 18 18 19 19 19 19 18 18 17
9 9 9 8 8 9 9 9 9 9 9 10 9 8 8 8 7 7 7 8 9 9 10 10 10 10 8 7 6 6 6 6 6 7 8 9 10 11 12 13 14 15 16 16 16 16 17 18 19 19 19 19 19 18 18 18 17 17 17 17 16 16 15 14 14 13 13 14 14 15 16 16 16 17 17 17 17 18 19 19 19 19 19 18 17 17
9 9 9 9 9 9 9 9 9 9 9 9 9 8 8 8 8 7 7 8 8 9 10 10 9 9 8 8 7 7 7 7 7 7 8 9 9 10 11 12 13 14 15 15 16 16 17 18 19 19 19 19 19 19 18 18 17 17 17 17 17 16 16 16 15 14 14 14 15 15 16 16 16 17 17 17 18 18 19 19 20 20 19 18 17 16
9 9 9 9 8 8 8 8 8 9 9 9 9 8 8 8 8 8 8 9 9 9 9 9 9 8 8 8 7 7 7 8 8 8 9 9 9 10 10 11 12 13 14 15 16 16 17 18 19 19 19 19 19 19 18 18 17 17 16 16 16 17 17 17 16 16 15 15 15 15 16 16 16 17 17 17 18 18 19 20 20 20 19 18 16 15
8 8 8 8 8 8 8 8 8 8 8 8 8 8 7 8 8 9 9 9 9 9 9 9 9 8 8 8 8 8 8 8 8 9 10 10 10 10 10 11 12 13 14 14 15 16 17 18 18 18 19 19 18 18 18 18 18 17 17 16 16 16 17 17 17 17 16 16 16 16 16 16 17 17 17 18 18 19 19 20 20 20 19 17 16 15
9 9 9 8 8 8 8 8 8 8 8 7 7 7 8 8 8 9 9 9 9 9 9 9 9 9 8 8 8 8 8 8 9 9 10 10 11 11 11 11 11 12 13 14 15 16 17 17 18 18 18 18 18 18 18 18 18 18 17 17 16 16 17 17 17 17 17 17 16 16 16 17 17 17 18 18 19 19 19 20 20 20 19 17 16 15
9 8 8 8 8 8 8 8 8 8 8 7 7 8 8 8 8 8 8 8 9 9 9 9 9 9 9 8 7 7 8 8 9 9 10 11 12 12 12 11 11 12 13 14 15 16 16 17 17 17 17 18 18 18 18 18 18 18 18 17 17 17 17 17 17 17 17 17 17 17 17 17 17 18 18 19 19 19 19 20 20 19 19 17 16 14
8 8 7 8 8 8 8 8 8 8 8 8 8 8 8 8 8 8 8 9 9 9 9 9 10 10 9 8 8 8 8 9 9 10 10 11 12 13 12 12 11 12 13 14 15 16 16 17 17 17 17 18 18 18 19 19 19 19 19 18 18 17 17 17 17 17 17 17 17 17 18 18 18 19 19 19 20 20 19 19 19 19 18 17 15 14
7 7 7 8 8 8 8 8 8 8 8 8 8 8 8 8 8 8 9 9 9 9 9 10 10 11 11 10 10 9 9 9 10 10 10 11 12 13 12 12 12 12 13 14 15 16 16 16 16 17 17 18 18 18 19 19 19 19 19 18 18 17 17 17 17 17 17 18 18 18 18 19 19 19 20 20 20 20 19 19 19 19 18 17 15 14
7 7 8 8 8 8 8 8 8 8 8 8 8 8 8 8 8 8 9 9 10 10 10 10 11 11 12 12 11 10 9 9 10 10 10 10 11 12 12 12 12 12 13 13 15 16 17 16 16 16 16 16 17 17 17 18 18 18 18 18 17 17 17 17 17 17 17 18 18 18 19 19 19 20 20 20 20 20 19 18 18 18 18 17 15 14
7 7 8 8 8 9 8 8 8 8 9 9 9 9 9 9 9 9 9 10 10 10 10 11 11 12 12 12 12 11 10 10 10 10 10 10 12 13 13 12 12 13 13 13 14 15 16 16 15 14 14 13 14 14 15 15 16 16 16 16 16 16 16 16 17 17 18 18 18 19 19 19 20 20 20 20 20 19 19 18 18 18 18 17 15 13
8 8 8 9 9 9 9 8 8 8 8 8 9 9 9 9 9 9 9 10 10 10 10 11 11 12 12 12 12 12 12 12 12 12 12 12 13 14 14 14 13 14 14 14 14 14 13 15 16 15 14 13 13 13 14 14 14 15 15 15 15 15 16 16 17 17 18 18 19 19 19 19 20 20 20 20 19 19 18 18 18 18 18 17 15 13
9 9 9 9 9 9 8 8 8 8 8 8 8 9 9 9 9 9 10 10 10 10 10 10 11 11 11 12 12 12 12 12 13 13 13 12 13 14 14 14 14 14 15 15 15 15 15 17 18 17 16 16 15 15 15 15 15 15 15 15 15 16 16 17 18 18 19 19 19 19 20 20 20 19 19 19 19 18 18 17 17 17 17 17 15 13
10 10 9 9 9 9 9 8 8 8 8 8 8 9 9 9 9 9 9 9 10 10 10 10 10 11 11 11 12 12 12 13 13 13 13 13 13 14 15 15 15 15 15 15 16 17 18 18 18 18 18 18 17 16 16 15 15 15 16 16 16 16 17 18 19 19 19 20 20 20 20 20 19 19 19 19 18 18 17 17 17 17 17 16 15 13
10 10 10 10 9 9 9 9 9 9 9 9 9 9 9 9 9 9 9 9 9 9 9 9 10 10 11 11 12 12 12 13 13 13 13 13 13 14 15 15 15 15 15 16 16 17 18 18 18 18 19 19 18 17 16 16 15 16 16 16 16 17 18 19 19 20 20 20 20 20 19 19 19 19 18 18 17 17 16 16 16 16 17 16 15 13
11 10 10 10 9 9 9 9 9 9 9 9 9 9 9 9 9 9 9 9 9 9 9 9 9 9 10 10 11 11 12 13 13 13 13 13 13 14 14 15 15 15 15 16 16 17 18 18 18 18 19 19 19 18 17 16 16 16 16 16 17 17 18 18 19 19 19 19 19 19 19 18 18 18 17 17 17 16 16 16 16 16 16 16 15 13
11 10 10 10 10 9 9 9 9 9 9 9 9 9 9 9 9 9 9 9 9 9 9 9 9 9 9 10 10 11 11 12 12 13 13 13 13 13 13 14 15 15 14 15 16 17 17 18 18 18 18 18 18 18 17 17 16 15 15 15 16 16 17 17 17 18 18 18 17 17 17 17 17 17 17 16 16 15 15 15 15 15 16 16 15 14
11 11 11 11 10 10 9 9 9 9 9 9 9 9 10 10 10 10 10 9 9 9 9 9 9 9 9 9 10 10 11 11 11 12 12 12 12 12 13 13 14 14 14 14 15 16 16 17 17 18 18 17 17 17 17 16 16 15 14 14 14 14 15 15 16 16 16 16 16 16 16 16 16 16 16 15 15 15 15 15 15 15 15 15 15 14
12 12 12 12 11 10 10 9 9 9 9 10 10 10 10 11 11 10 10 10 9 9 9 9 9 9 9 10 10 10 10 10 11 11 11 11 12 12 12 13 13 13 14 14 14 15 15 16 16 17 17 17 16 16 16 16 15 15 14 13 13 12 12 13 14 14 14 14 14 14 14 14 15 15 15 14 14 14 14 14 14 14 14 14 14 13
12 12 12 13 13 12 12 11 10 10 10 11 11 11 11 11 10 10 10 10 10 9 9 9 9 9 10 10 10 10 10 10 10 10 11 11 11 11 12 12 12 13 13 13 13 14 14 15 15 15 16 16 16 16 15 15 14 14 13 13 11 10 10 11 12 12 12 12 12 12 13 13 13 13 13 13 13 13 13 13 13 13 13 13 13 13
13 13 13 14 14 13 12 12 11 11 11 11 11 11 11 11 10 10 10 10 10 10 10 9 9 10 10 10 10 10 10 10 10 10 10 10 11 11 11 11 12 12 12 12 13 13 13 13 14 14 14 15 15 15 15 14 13 13 13 12 11 10 9 9 10 10 11 11 11 11 11 12 12 12 12 12 12 12 12 12 12 12 13 13 13 12
14 14 14 14 14 13 12 12 12 11 11 11 11 11 11 11 11 10 10 10 11 11 10 10 10 9 9 10 10 10 10 9 9 10 10 10 10 10 11 11 11 11 12 12 12 12 12 12 13 13 13 14 14 14 14 12 12 12 12 12 11 10 8 7 8 9 10 10 10 11 11 11 11 11 12 12 12 12 12 12 12 12 12 12 12 12
14 14 14 14 13 13 12 12 11 11 11 11 11 11 11 11 11 11 11 11 11 11 11 11 10 10 9 9 9 9 9 9 9 9 10 10 10 10 10 11 11 11 11 11 11 11 12 12 12 12 13 13 14 14 13 11 10 10 10 11 10 10 9 7 7 8 9 10 10 10 10 11 11 11 12 12 12 12 12 12 12 12 12 12 12 12
14 14 14 13 13 12 12 11 11 11 11 11 11 11 11 11 11 11 11 11 11 11 11 11 10 10 9 8 8 8 9 9 9 9 10 10 10 10 11 11 11 11 11 11 11 11 11 11 11 11 12 13 13 13 12 10 9 9 9 9 10 10 9 8 7 7 8 9 9 10 10 11 11 12 12 12 12 12 12 12 12 12 12 12 12 12
13 13 13 13 13 12 12 12 12 12 12 12 12 12 12 11 11 11 11 11 11 12 12 11 10 10 9 9 9 9 9 9 10 10 10 10 10 11 11 11 11 11 11 11 11 11 11 11 11 11 12 12 12 12 11 10 9 8 8 8 9 9 9 8 7 7 7 8 8 9 10 11 12 12 12 12 12 11 11 11 11 11 11 12 12 12
13 14 14 14 13 13 13 13 13 13 13 12 12 12 12 11 11 11 11 11 11 12 12 11 11 10 10 9 9 9 10 10 10 10 10 11 11 11 11 11 11 11 11 11 11 11 11 11 11 11 11 11 11 11 10 9 9 8 7 8 9 9 9 8 7 7 7 8 8 9 11 12 12 12 12 12 12 12 12 12 12 11 11 12 12 13
15 15 15 15 14 14 14 13 13 13 13 13 13 12 11 11 11 11 11 11 11 11 12 11 11 11 10 10 10 10 10 10 10 10 11 11 11 11 11 12 12 12 11 11 11 11 11 11 11 11 11 11 11 10 8 8 8 8 8 8 9 9 9 8 7 8 8 8 9 9 11 12 12 13 13 13 13 12 12 12 12 12 12 12 12 13
16 16 16 16 16 16 15 15 14 14 14 14 13 12 11 11 10 10 11 11 11 11 11 11 11 11 11 10 10 10 10 10 10 10 10 11 11 11 12 12 12 12 12 12 12 12 11 11 11 11 11 11 11 10 8 7 8 8 9 9 9 9 8 7 7 8 9 9 9 10 11 11 12 13 13 13 13 13 13 13 13 13 13 13 13 13
18 17 17 17 17 17 17 16 16 15 15 14 13 12 11 11 10 11 11 11 11 11 11 11 11 11 10 10 10 10 10 10 10 10 10 10 11 11 11 11 12 12 12 12 12 12 12 11 11 10 10 11 11 10 9 8 8 8 9 9 9 8 8 7 7 8 9 10 10 10 11 11 12 12 13 13 14 14 13 13 13 13 13 13 13 14
18 18 18 18 18 18 17 17 16 15 14 13 12 12 11 11 11 11 11 11 11 11 11 11 11 10 10 10 10 10 10 10 10 10 10 10 10 10 10 11 11 11 11 11 12 12 12 11 10 10 10 10 10 10 9 9 9 8 9 9 9 8 8 7 7 8 9 10 10 10 10 11 11 12 12 13 14 14 13 13 12 12 12 13 14 14
18 18 18 18 17 17 16 15 15 14 13 12 12 11 11 11 11 11 11 11 11 10 10 10 10 9 9 9 9 9 10 10 10 10 10 10 10 10 10 10 10 10 10 11 11 11 11 10 9 7 7 9 9 9 9 9 9 8 8 8 8 8 8 8 8 8 9 10 10 10 10 10 10 11 11 12 13 13 13 12 11 11 11 12 14 14
Wind_Direction
269 271 272 272 272 272 273 275 275 275 276 278 279 281 283 285 287 288 290 291 292 292 293 293 293 293 292 290 287 283 280 279 281 284 285 285 284 281 279 276 273 271 271 271 271 271 273 275 276 277 277 276 275 272 267 262 259 259 261 260 258 253 242 231 223 212 192 173 160 155 155 159 164 167 170 172 174 176 178 185 199 229 263 279 286 288
270 270 271 271 271 271 272 274 275 275 275 277 279 281 282 284 286 287 288 289 290 291 291 291 292 291 290 287 284 282 281 283 285 287 287 286 282 276 271 269 269 270 270 270 270 270 270 269 268 267 266 265 264 263 260 255 251 252 253 251 247 240 227 220 219 216 205 194 188 180 167 159 160 165 171 177 183 191 203 222 246 266 278 283 285 285
270 270 270 271 271 271 272 273 275 276 276 277 279 281 282 283 284 285 285 286 287 288 288 289 289 289 287 283 280 278 279 282 284 284 283 284 280 271 265 266 270 272 270 269 267 266 264 262 259 257 257 259 262 265 265 263 258 254 252 248 243 236 226 223 224 224 219 215 214 216 218 221 221 220 222 229 235 242 251 261 271 278 283 285 285 285
270 269 270 271 272 272 272 273 274 276 277 278 279 281 282 283 283 284 284 284 284 285 286 287 287 287 285 279 273 270 271 273 275 276 277 277 273 268 266 271 275 274 270 267 265 262 259 255 252 251 253 260 267 272 274 273 269 263 259 254 249 244 239 237 236 236 234 233 231 230 233 239 246 253 259 264 267 270 273 277 281 284 285 286 285 283
270 270 270 271 271 272 272 273 274 275 276 277 279 280 281 281 281 282 282 282 282 283 285 286 287 286 283 276 268 264 263 264 265 266 266 264 261 262 266 272 275 272 267 266 265 262 256 249 244 244 251 260 267 272 273 273 270 266 262 259 257 254 251 248 246 244 243 243 243 243 243 247 253 260 267 273 277 279 281 282 284 284 284 283 280 276
270 270 271 271 271 271 272 273 273 274 275 276 277 278 278 278 279 279 280 281 283 284 286 287 287 285 282 274 267 261 260 259 257 256 256 253 252 255 262 268 270 267 264 268 270 265 254 244 238 239 247 256 263 267 269 270 267 264 260 257 256 256 255 254 253 251 249 249 250 251 253 255 259 264 269 273 276 278 278 278 277 277 276 274 271 269
270 270 271 271 272 272 271 271 272 273 274 275 276 276 276 276 276 278 280 282 285 288 289 288 287 285 280 274 267 261 257 254 252 251 251 250 250 252 258 263 265 264 265 272 274 267 253 241 236 239 248 258 267 274 277 276 272 266 260 254 250 249 250 251 253 254 253 253 254 255 257 259 262 265 268 271 274 275 274 271 269 268 267 266 266 266
270 270 271 271 271 271 271 272 273 275 275 275 274 274 273 273 274 277 281 285 288 291 291 290 288 285 281 274 266 259 254 250 248 248 249 248 249 251 254 258 261 263 269 276 277 268 250 238 235 244 256 267 278 286 290 288 282 275 265 256 248 244 243 245 248 251 253 254 254 255 257 258 260 262 265 268 271 272 271 269 267 265 264 265 266 267
269 270 271 271 271 272 273 275 277 279 278 276 275 274 274 274 275 277 281 286 290 292 293 294 293 288 281 272 260 250 246 243 244 245 246 245 245 246 248 252 256 264 274 280 278 267 249 239 244 258 269 275 283 291 296 296 293 287 278 266 254 246 242 241 243 247 250 253 254 255 256 257 259 261 263 265 267 269 269 268 266 265 265 266 267 269
272 272 272 273 274 274 274 277 279 280 280 280 279 279 280 282 283 284 286 288 290 292 293 296 297 295 284 270 250 235 234 235 236 236 236 236 238 240 242 246 254 266 275 278 274 263 249 249 262 274 277 278 283 291 297 299 300 298 294 285 272 258 249 244 243 244 247 250 253 255 256 258 259 261 263 264 266 267 267 267 266 265 265 267 268 270
274 273 272 271 271 272 272 273 276 280 283 284 285 286 287 287 289 291 293 292 289 287 289 293 296 294 285 273 252 232 226 231 233 232 228 226 227 231 236 243 253 263 269 270 266 258 255 263 273 278 277 278 282 288 294 298 302 304 302 295 283 270 258 250 246 244 244 247 250 253 255 257 259 261 263 265 266 267 268 267 267 267 267 269 271 273
270 269 267 264 265 270 275 276 276 278 281 281 279 278 280 288 293 295 294 293 289 285 284 285 287 286 282 273 261 246 234 234 238 240 240 237 233 233 239 246 253 259 261 259 255 253 259 268 273 274 275 276 280 285 290 296 301 304 301 293 283 271 262 255 249 245 244 245 247 250 252 255 258 260 262 265 266 268 268 268 269 270 272 274 276 278
265 264 264 266 268 273 279 279 277 275 273 270 267 266 272 287 296 295 291 290 290 288 285 283 283 283 280 278 269 256 247 243 242 244 247 249 251 251 252 254 258 259 257 250 247 251 259 267 270 271 271 273 277 281 287 293 299 301 298 291 282 272 264 257 252 249 246 246 247 248 250 253 256 258 260 262 264 266 268 269 271 273 276 278 281 282
263 265 267 268 268 268 269 271 272 271 270 265 262 263 270 284 291 291 290 290 292 294 295 287 286 286 281 275 269 262 256 252 249 247 247 248 249 251 252 253 256 258 254 247 245 250 258 265 269 269 270 272 275 279 284 291 297 299 298 293 285 276 268 262 257 254 252 251 250 250 251 253 254 255 257 259 261 263 266 269 272 275 278 280 282 284
260 260 260 262 264 266 268 270 273 274 273 270 269 270 274 280 285 287 287 289 293 297 296 286 282 283 281 274 265 260 259 258 256 254 253 251 249 248 248 249 251 253 252 250 251 255 259 265 268 269 270 272 274 278 283 289 295 298 298 294 288 280 272 266 262 259 258 257 256 255 255 255 255 255 256 258 259 262 265 268 272 275 278 281 283 284
256 255 256 262 268 273 276 277 278 280 281 284 285 285 284 284 283 283 285 289 293 294 292 288 285 283 281 274 264 258 257 258 258 259 259 260 257 253 250 250 250 251 253 254 258 262 265 267 268 270 271 272 275 278 283 288 293 297 298 295 289 281 274 268 264 261 260 260 260 259 259 258 258 258 258 259 261 263 266 269 272 276 278 281 282 283
255 256 259 263 269 274 280 279 281 285 291 292 291 288 285 284 283 282 284 287 290 289 287 288 290 291 290 283 273 263 255 254 255 257 258 259 260 259 257 254 255 257 258 260 263 266 268 269 269 270 271 273 275 279 283 287 292 295 296 294 290 283 275 269 264 261 260 260 260 260 261 260 260 261 261 262 264 266 268 271 274 276 279 280 281 282
255 257 260 263 265 269 273 275 279 286 287 283 282 281 280 280 281 283 287 289 290 291 288 287 284 283 283 281 276 268 256 250 249 250 250 250 252 256 259 257 257 259 261 264 265 267 268 269 269 270 271 273 276 279 282 286 289 292 293 292 289 284 278 271 266 263 261 261 261 261 261 262 262 263 264 265 266 268 270 273 275 278 280 281 281 281
253 255 258 261 264 267 269 272 276 277 274 273 273 274 276 278 281 284 288 289 289 287 285 281 278 274 272 270 269 265 257 250 246 245 246 244 244 247 253 255 257 259 261 262 264 266 267 268 269 270 272 274 276 279 281 284 287 289 290 289 287 283 279 274 270 267 264 263 263 262 263 264 264 266 267 268 270 272 273 275 278 280 282 283 283 282
254 254 256 261 264 266 267 269 268 268 267 267 267 270 271 272 274 276 279 280 279 277 277 280 280 277 271 265 265 266 262 253 248 247 248 246 243 245 249 251 254 257 259 260 261 263 265 266 268 269 271 274 276 279 281 284 286 288 289 288 286 283 279 276 272 270 267 266 265 265 265 266 267 268 270 272 274 275 277 279 281 282 284 285 284 283
257 257 262 266 265 263 264 264 264 262 263 264 266 267 266 265 265 268 272 275 276 277 279 284 286 284 281 279 277 277 275 265 257 253 254 253 249 247 248 250 252 255 256 257 258 260 262 264 266 268 270 272 275 278 281 284 286 287 288 287 286 283 281 278 275 272 270 268 267 267 267 268 269 270 272 274 277 279 281 282 284 285 286 286 285 283
261 260 264 265 264 263 262 260 260 261 263 263 264 264 262 262 265 268 272 275 279 281 283 285 287 289 291 291 287 284 283 272 262 257 257 254 252 249 248 250 252 253 254 255 256 257 259 262 264 266 269 271 273 276 279 282 284 286 287 287 286 285 283 281 278 276 273 271 270 269 269 269 270 272 274 277 279 282 284 285 286 287 287 287 285 282
259 258 258 260 261 262 262 261 263 266 266 264 262 260 259 260 264 268 271 274 278 280 282 284 286 289 290 288 285 283 279 272 268 264 260 255 252 251 250 250 251 252 254 255 256 257 258 260 263 265 268 271 273 275 277 279 281 282 283 285 285 285 285 283 281 279 276 274 272 271 271 272 272 274 276 279 281 284 286 287 288 288 288 287 284 280
257 255 256 258 261 262 262 262 264 266 266 264 261 257 257 260 265 269 271 275 278 282 284 285 285 284 282 280 279 277 275 272 270 268 264 261 258 256 253 251 251 253 254 255 256 257 258 260 262 265 267 270 273 275 276 277 278 279 279 280 282 283 283 283 282 280 278 276 274 273 273 273 274 276 278 280 283 285 287 288 288 288 288 286 283 278
256 254 254 256 259 260 260 260 260 262 263 263 262 261 261 265 268 273 275 277 280 281 281 280 280 279 279 280 280 279 276 275 273 270 268 267 265 261 257 255 253 254 255 256 257 258 258 260 262 264 266 268 270 272 274 275 276 276 277 277 277 278 279 280 279 279 277 276 274 274 273 274 275 277 279 281 283 285 287 288 288 288 287 284 281 276
255 252 251 253 255 257 258 259 260 261 262 263 263 264 265 267 268 270 272 275 276 276 276 277 278 279 281 286 288 286 282 280 277 273 270 270 268 265 261 258 256 256 257 257 257 258 259 260 261 263 264 266 267 269 270 272 273 274 275 275 275 275 274 275 275 276 276 275 274 274 274 274 275 277 279 281 283 285 286 286 286 286 285 282 279 274
253 250 249 250 253 256 259 262 263 265 265 265 264 263 263 264 266 269 273 274 273 272 273 276 280 283 285 290 292 290 287 285 281 277 274 272 270 268 266 263 260 258 258 258 258 258 259 260 260 261 262 263 264 266 267 269 271 272 274 274 274 273 272 271 272 273 273 273 273 273 274 274 276 277 279 281 283 284 285 285 284 283 282 280 276 272
251 251 251 253 255 258 261 264 266 268 269 270 268 265 264 265 267 270 272 271 271 273 275 277 280 284 287 289 288 286 286 284 280 277 276 274 273 272 272 270 266 262 261 260 259 259 259 259 260 260 261 262 263 264 266 268 269 271 272 272 272 271 271 270 269 270 271 271 272 272 273 274 276 278 279 281 282 283 283 283 282 281 279 277 274 269
254 257 259 260 262 264 265 267 269 271 272 272 271 270 268 268 268 267 268 269 272 275 277 277 279 281 283 282 282 281 281 278 275 274 275 274 274 276 278 276 272 268 266 265 264 263 262 261 261 261 261 262 263 264 266 267 268 269 270 270 270 269 269 268 268 268 268 269 270 271 273 274 276 278 279 280 281 281 281 280 279 278 276 274 271 267
259 264 267 269 270 271 272 272 273 274 275 275 275 275 274 273 271 269 270 271 274 275 276 277 278 279 280 281 282 282 281 276 272 272 273 272 273 276 278 277 275 273 271 272 272 271 270 269 267 265 265 264 265 265 266 266 267 268 268 268 268 268 268 267 266 266 267 268 269 271 272 274 276 277 278 279 280 279 279 278 277 275 273 271 268 264
265 268 271 273 275 276 277 277 277 277 278 279 279 279 280 279 278 277 277 277 277 277 276 277 278 279 280 282 284 285 284 277 274 273 273 272 272 274 276 276 275 274 274 274 275 278 280 278 275 272 270 269 268 268 267 268 268 268 268 268 268 267 267 266 265 265 266 267 269 270 272 274 276 277 278 278 278 277 276 275 274 273 271 269 267 261
268 270 271 273 276 277 279 279 280 280 281 282 282 283 284 284 284 283 283 282 282 281 280 280 279 279 280 281 282 282 281 279 277 276 275 273 272 273 274 275 275 275 274 274 274 275 278 280 280 280 278 275 273 272 271 270 269 269 268 268 267 267 266 265 265 265 266 267 269 270 272 273 275 276 276 276 276 275 274 272 271 270 269 268 265 260
269 270 271 272 275 277 279 280 282 283 284 285 285 286 287 287 287 287 286 286 286 285 285 284 283 283 282 281 281 281 280 280 279 277 276 275 275 274 275 275 275 275 275 275 274 273 273 277 280 281 281 278 276 274 273 272 271 269 268 268 267 266 265 265 265 266 266 267 268 270 271 272 273 274 274 274 274 273 271 269 268 268 267 267 264 258
270 272 273 274 277 279 282 284 286 287 288 289 290 290 291 290 290 289 288 288 288 288 287 287 287 287 287 287 286 286 285 283 281 280 280 278 277 277 277 277 277 277 277 277 277 277 276 278 280 281 282 280 278 277 275 274 272 271 269 268 267 266 265 265 265 266 267 267 269 270 271 271 271 271 271 271 271 270 269 267 265 265 265 265 263 257
267 270 271 274 277 280 285 288 290 291 291 293 293 294 294 293 293 292 292 291 291 290 290 289 288 288 288 289 290 290 289 286 284 283 284 281 280 279 279 279 278 278 279 278 278 278 279 280 281 282 283 283 282 281 279 277 276 274 272 270 269 267 266 266 266 267 267 268 269 269 270 269 269 269 268 268 267 266 265 263 262 262 262 263 261 255
262 264 267 271 274 279 284 288 290 291 292 293 294 294 295 295 295 295 295 295 295 294 293 292 290 288 287 286 288 288 289 287 286 286 286 283 281 280 280 280 279 279 279 279 279 279 280 281 282 282 283 284 284 284 283 280 278 276 274 273 271 269 268 268 268 268 268 268 268 268 267 267 266 265 264 263 263 262 260 259 258 258 259 260 260 255
259 262 265 268 272 276 279 282 284 286 287 289 291 292 294 294 295 296 297 296 296 295 294 293 292 291 289 286 285 284 284 285 286 286 286 284 283 281 280 280 280 280 279 279 280 281 281 282 283 283 284 284 285 286 286 284 281 278 276 274 272 271 271 270 269 268 268 267 266 265 264 263 262 261 260 259 259 257 256 255 254 254 255 257 258 255
261 264 268 270 272 274 275 276 277 280 283 286 289 291 293 294 295 295 295 294 293 293 292 292 292 291 290 289 286 284 283 284 285 285 285 285 284 282 281 281 281 282 281 280 281 282 283 283 284 285 286 286 286 287 287 286 284 281 278 275 274 273 272 270 269 267 266 265 264 262 261 259 258 257 257 257 256 255 253 252 251 251 252 255 257 256
267 270 272 273 275 275 276 276 278 281 284 287 290 292 294 294 294 294 293 292 291 290 290 291 292 292 291 290 289 287 285 285 285 285 285 285 285 283 282 282 283 283 282 282 282 282 283 284 285 286 288 288 288 288 287 287 287 285 283 279 276 273 271 268 267 266 265 264 262 260 258 256 255 254 254 254 254 253 251 250 250 250 251 254 257 257
271 273 274 276 277 277 279 280 281 284 287 290 292 293 295 295 294 293 292 290 289 288 288 288 288 289 289 289 289 287 286 285 284 284 284 284 284 284 283 282 283 283 284 284 284 284 284 285 286 287 288 289 289 289 288 289 289 289 288 285 280 275 269 267 266 266 265 264 261 258 255 253 252 251 251 251 251 250 249 248 247 247 248 249 250 250
269 271 273 274 275 277 278 280 282 285 288 291 294 296 296 296 296 295 294 291 290 287 286 286 286 286 287 287 286 285 284 284 284 283 283 283 283 284 284 283 283 283 284 284 284 284 285 285 286 288 288 289 289 289 290 291 293 293 292 290 286 280 271 266 264 265 264 263 260 257 254 251 250 249 248 248 247 247 246 245 244 244 244 245 247 248
265 266 268 269 272 274 277 279 281 284 287 290 294 297 298 298 298 297 296 294 293 291 289 287 286 286 286 284 283 281 281 281 281 282 282 282 283 283 283 283 283 283 283 284 284 284 284 285 286 287 288 288 289 289 291 294 295 295 294 293 291 285 274 265 261 261 261 261 259 256 254 251 249 247 246 245 243 243 242 242 241 241 242 243 244 245
264 265 267 268 270 273 275 278 282 285 288 292 295 298 298 298 298 297 296 295 293 291 288 286 283 280 277 275 274 275 275 276 277 278 279 280 281 281 282 282 282 282 282 283 283 284 284 284 285 286 287 288 288 290 293 297 298 296 294 294 292 288 283 274 262 257 257 257 257 256 253 251 248 246 243 242 240 239 239 240 240 241 242 243 244 244
268 269 271 271 273 274 277 280 284 288 291 295 298 300 300 299 298 297 295 294 291 289 287 283 279 274 268 261 258 259 264 268 270 271 273 275 277 278 279 280 280 281 282 281 282 283 284 284 285 285 286 287 289 292 296 300 300 297 293 291 289 287 285 280 267 255 252 252 253 254 253 250 247 245 243 241 240 239 239 239 240 241 242 244 245 245
269 272 273 275 276 279 282 285 288 291 294 297 300 301 301 299 298 296 294 292 290 288 286 283 279 273 265 255 248 248 251 258 262 264 266 269 272 274 275 276 277 279 280 281 281 282 284 285 285 284 285 287 290 293 298 301 300 296 291 287 284 282 279 276 270 261 252 247 247 248 249 249 247 245 244 243 242 241 241 241 241 240 241 242 243 245
270 272 275 277 280 282 285 288 290 292 295 298 300 300 298 296 293 292 290 289 287 285 284 282 279 275 268 260 253 249 249 252 256 260 262 264 266 269 271 273 274 276 278 280 282 283 284 285 286 287 287 288 290 294 299 300 298 294 288 282 279 277 278 277 275 269 260 250 244 244 246 246 246 245 244 243 243 242 242 241 241 241 240 240 241 242
273 275 278 280 283 285 286 288 290 292 294 295 295 294 292 290 288 286 285 283 282 281 281 280 279 276 273 268 263 258 254 253 256 259 261 263 264 266 268 271 273 275 277 278 281 283 285 286 288 290 292 293 294 295 297 296 293 290 285 278 274 273 273 275 275 270 263 256 249 245 244 245 245 246 245 244 242 241 241 241 241 241 241 241 241 241
274 277 279 282 284 286 287 288 289 291 292 291 290 289 286 284 282 281 280 278 276 276 277 278 278 278 276 275 272 268 264 261 260 261 262 263 265 266 268 270 272 275 277 279 281 283 285 287 290 294 296 297 297 297 295 290 286 283 279 275 273 271 270 270 268 266 262 258 253 249 246 245 246 247 246 245 243 241 240 240 241 242 242 243 243 243
269 272 275 278 280 282 284 286 287 288 288 288 287 286 284 282 281 279 278 276 274 274 275 276 277 277 277 277 276 274 272 270 268 267 266 266 266 268 269 271 273 275 277 280 282 284 285 288 292 296 298 298 297 295 292 286 280 276 275 275 274 273 270 266 261 259 258 256 254 251 249 248 248 248 249 248 246 244 242 240 241 242 244 246 247 246
262 265 268 271 273 276 278 280 282 283 283 283 284 285 285 284 283 280 278 276 274 274 274 274 275 276 277 277 277 277 277 276 275 275 274 272 272 272 274 274 275 276 277 279 281 282 284 287 291 296 297 295 292 290 288 284 279 276 276 276 276 273 270 264 257 253 253 254 253 253 252 251 251 252 253 254 253 251 247 244 243 243 245 247 249 249
256 258 261 264 266 269 272 274 275 276 277 279 280 282 284 284 283 281 277 275 273 272 273 274 274 275 277 277 278 278 279 279 279 280 280 280 279 279 280 281 281 282 282 283 283 283 284 285 288 294 297 291 287 285 284 283 281 278 276 275 274 272 269 265 259 254 253 253 254 255 255 255 256 256 257 258 259 258 255 251 247 245 245 247 248 249